Date String (YYYY-MM-DD hh:mm:ss) UTC,Instrument flags,absolute air pressure of the measurement (hPa),sample flow rate (lpm),inlet stack bypass flow (lpm),air temperature of the measurement (°C),ambient temperature measured by the external sensor (°C),aerosol sample conditioner tube jacket temperature (°C),OPC LED temperature (°C),internal box temperature (°C),relative humidity of the measurement (%),span deviation,mass concentration of particles derived from Lorenz-Mie calculation of OPC scattering (μg/m³),mass concentration of particles derived from Lorenz-Mie calculation of OPC scattering (μg/m³),mass concentration of particles derived from Lorenz-Mie calculation of OPC scattering (μg/m³)
DateTimeUTC,F1_M11,P_M11,Q1_M11,Q2_M11,T1_M11,T2_M11,T3_M11,T4_M11,T5_M11,U1_M11,ZSPAN_M11,X0_M11,X2_M11,X1_M11
2023-11-22 09:00:00,SystemResetWarning,0834.8,5.00,000.00,021.3,020.4,000.0,029.7,022.5,10.2,0000.0,0001.60,0000.45,0000.36
2023-11-22 09:01:00,SystemResetWarning,0834.6,5.00,000.00,021.3,020.4,000.0,029.7,022.5,10.2,0000.0,0001.17,0000.47,0000.37
2023-11-22 09:02:00,SystemResetWarning,0834.8,5.00,000.00,021.3,020.4,000.0,029.7,022.5,10.2,0000.0,0000.82,0000.48,0000.37
2023-11-22 09:03:00,SystemResetWarning,0835.0,5.01,000.00,021.3,020.4,000.0,029.7,022.4,10.1,0000.0,0000.79,0000.47,0000.37
2023-11-22 09:04:00,SystemResetWarning,0835.1,5.00,000.00,021.3,020.4,000.0,029.7,022.4,10.1,0000.0,0000.67,0000.45,0000.37
2023-11-22 09:05:00,SystemResetWarning,0834.9,5.00,000.00,021.3,020.4,000.0,029.7,022.5,10.1,0000.0,0000.65,0000.44,0000.37
2023-11-22 09:06:00,SystemResetWarning,0834.6,5.01,000.00,021.3,020.4,000.0,029.7,022.5,10.1,0000.0,0000.67,0000.45,0000.37
2023-11-22 09:07:00,SystemResetWarning,0834.5,5.00,000.00,021.3,020.4,000.0,029.7,022.5,10.1,0000.0,0000.62,0000.43,0000.37
2023-11-22 09:08:00,SystemResetWarning,0834.5,5.00,000.00,021.3,020.4,000.0,029.7,022.5,10.1,0000.0,0000.62,0000.43,0000.37
2023-11-22 09:09:00,SystemResetWarning,0834.5,4.99,000.00,021.3,020.4,000.0,029.7,022.5,10.2,0000.0,0000.61,0000.43,0000.37
2023-11-22 09:10:00,SystemResetWarning,0834.5,5.00,000.00,021.3,020.4,000.0,029.7,022.4,10.0,0000.0,0000.55,0000.41,0000.37
2023-11-22 09:11:00,SystemResetWarning,0834.5,5.01,000.00,021.3,020.4,000.0,029.6,022.4,10.1,0000.0,0000.54,0000.41,0000.37
2023-11-22 09:12:00,SystemResetWarning,0834.5,5.00,000.00,021.3,020.4,000.0,029.6,022.4,10.1,0000.0,0000.49,0000.40,0000.38
2023-11-22 09:13:00,SystemResetWarning,0834.4,5.00,000.00,021.2,020.3,000.0,029.6,022.4,10.1,0000.0,0000.50,0000.40,0000.38
2023-11-22 09:14:00,SystemResetWarning,0834.4,5.01,000.00,021.2,020.3,000.0,029.6,022.4,10.1,0000.0,0000.50,0000.41,0000.39
2023-11-22 09:15:00,SystemResetWarning,0834.3,5.00,000.00,021.2,020.3,000.0,029.6,022.3,10.1,0000.0,0000.86,0000.41,0000.39
2023-11-22 09:16:00,SystemResetWarning,0834.4,4.99,000.00,021.2,020.3,000.0,029.6,022.3,10.0,0000.0,0001.84,0000.41,0000.39
2023-11-22 09:17:00,SystemResetWarning,0834.4,4.99,000.00,021.2,020.3,000.0,029.6,022.4,10.0,0000.0,0001.83,0000.41,0000.39
2023-11-22 09:18:00,SystemResetWarning,0834.4,4.99,000.00,021.2,020.3,000.0,029.6,022.3,10.0,0000.0,0001.83,0000.41,0000.40
2023-11-22 09:19:00,SystemResetWarning,0834.3,5.01,000.00,021.2,020.3,000.0,029.6,022.3,10.1,0000.0,0001.84,0000.42,0000.40
2023-11-22 09:20:00,SystemResetWarning,0834.4,5.01,000.00,021.2,020.3,000.0,029.6,022.4,10.1,0000.0,0001.86,0000.43,0000.40
2023-11-22 09:21:00,SystemResetWarning,0834.3,4.99,000.00,021.2,020.3,000.0,029.6,022.4,10.1,0000.0,0001.86,0000.44,0000.40
2023-11-22 09:22:00,SystemResetWarning,0834.4,4.99,000.00,021.2,020.3,000.0,029.6,022.3,10.2,0000.0,0001.88,0000.45,0000.41
2023-11-22 09:23:00,SystemResetWarning,0834.5,5.00,000.00,021.2,020.3,000.0,029.6,022.3,10.2,0000.0,0001.87,0000.45,0000.42
2023-11-22 09:24:00,SystemResetWarning,0834.6,5.00,000.00,021.1,020.3,000.0,029.6,022.3,10.3,0000.0,0001.84,0000.44,0000.41
2023-11-22 09:25:00,SystemResetWarning,0834.5,5.00,000.00,021.1,020.3,000.0,029.5,022.3,10.3,0000.0,0001.84,0000.43,0000.41
2023-11-22 09:26:00,SystemResetWarning,0834.3,5.01,000.00,021.1,020.3,000.0,029.5,022.3,10.2,0000.0,0001.40,0000.43,0000.40
2023-11-22 09:27:00,SystemResetWarning,0834.2,5.00,000.00,021.1,020.3,000.0,029.5,022.3,10.1,0000.0,0000.53,0000.44,0000.39
2023-11-22 09:28:00,SystemResetWarning,0834.2,5.00,000.00,021.1,020.2,000.0,029.5,022.2,10.1,0000.0,0000.57,0000.46,0000.39
2023-11-22 09:29:00,SystemResetWarning,0834.2,5.00,000.00,021.1,020.2,000.0,029.5,022.2,10.0,0000.0,0000.61,0000.46,0000.38
2023-11-22 09:30:00,SystemResetWarning,0834.2,5.00,000.00,021.1,020.2,000.0,029.5,022.2,10.1,0000.0,0000.62,0000.47,0000.39
2023-11-22 09:31:00,SystemResetWarning,0834.2,5.00,000.00,021.1,020.2,000.0,029.5,022.2,10.2,0000.0,0000.61,0000.45,0000.38
2023-11-22 09:32:00,SystemResetWarning,0834.2,4.99,000.00,021.1,020.2,000.0,029.5,022.2,10.1,0000.0,0000.60,0000.44,0000.38
2023-11-22 09:33:00,SystemResetWarning,0834.1,5.00,000.00,021.1,020.2,000.0,029.5,022.3,10.1,0000.0,0000.58,0000.43,0000.36
2023-11-22 09:34:00,SystemResetWarning,0834.2,5.00,000.00,021.1,020.2,000.0,029.5,022.3,10.2,0000.0,0000.57,0000.42,0000.35
2023-11-22 09:35:00,SystemResetWarning,0834.1,5.00,000.00,021.1,020.2,000.0,029.5,022.2,10.2,0000.0,0000.58,0000.42,0000.35
2023-11-22 09:36:00,SystemResetWarning,0834.1,5.00,000.00,021.1,020.2,000.0,029.5,022.2,10.2,0000.0,0000.58,0000.42,0000.35
2023-11-22 09:37:00,SystemResetWarning,0834.1,5.00,000.00,021.1,020.2,000.0,029.5,022.2,10.1,0000.0,0000.63,0000.44,0000.35
2023-11-22 09:38:00,SystemResetWarning,0834.1,5.00,000.00,021.1,020.2,000.0,029.5,022.2,10.2,0000.0,0000.61,0000.44,0000.36
2023-11-22 09:39:00,SystemResetWarning,0834.0,5.00,000.00,021.1,020.2,000.0,029.5,022.2,10.2,0000.0,0000.61,0000.43,0000.36
2023-11-22 09:40:00,SystemResetWarning,0834.0,4.99,000.00,021.0,020.2,000.0,029.4,022.2,10.2,0000.0,0000.59,0000.43,0000.37
2023-11-22 09:41:00,SystemResetWarning,0834.0,4.99,000.00,021.0,020.2,000.0,029.4,022.1,10.1,0000.0,0000.57,0000.42,0000.37
2023-11-22 09:42:00,SystemResetWarning,0834.1,5.00,000.00,021.0,020.2,000.0,029.4,022.1,10.1,0000.0,0000.56,0000.42,0000.36
2023-11-22 09:43:00,SystemResetWarning,0834.0,5.00,000.00,021.0,020.2,000.0,029.4,022.1,10.0,0000.0,0000.57,0000.43,0000.37
2023-11-22 09:44:00,SystemResetWarning,0833.9,5.00,000.00,021.0,020.2,000.0,029.4,022.1,10.1,0000.0,0000.57,0000.42,0000.36
2023-11-22 09:45:00,SystemResetWarning,0834.0,5.00,000.00,021.0,020.2,000.0,029.4,022.1,10.1,0000.0,0000.60,0000.43,0000.36
2023-11-22 09:46:00,SystemResetWarning,0833.9,5.00,000.00,021.0,020.2,000.0,029.4,022.1,10.1,0000.0,0000.59,0000.42,0000.36
2023-11-22 09:47:00,SystemResetWarning,0833.9,5.01,000.00,021.0,020.2,000.0,029.4,022.1,10.0,0000.0,0000.70,0000.42,0000.36
2023-11-22 09:48:00,SystemResetWarning,0833.9,5.00,000.00,021.0,020.1,000.0,029.4,022.1,10.0,0000.0,0000.82,0000.43,0000.35
2023-11-22 09:49:00,SystemResetWarning,0833.8,5.01,000.00,021.0,020.1,000.0,029.4,022.1,10.0,0000.0,0000.82,0000.43,0000.35
2023-11-22 09:50:00,SystemResetWarning,0833.8,5.00,000.00,021.0,020.1,000.0,029.4,022.1,10.0,0000.0,0001.21,0000.41,0000.34
2023-11-22 09:51:00,SystemResetWarning,0833.8,5.00,000.00,021.0,020.1,000.0,029.4,022.1,10.0,0000.0,0001.32,0000.39,0000.32
2023-11-22 09:52:00,SystemResetWarning,0833.8,5.00,000.00,021.0,020.1,000.0,029.4,022.1,10.0,0000.0,0001.34,0000.39,0000.32
2023-11-22 09:53:00,SystemResetWarning,0833.8,5.00,000.00,021.0,020.2,000.0,029.4,022.2,10.0,0000.0,0001.37,0000.40,0000.32
2023-11-22 09:54:00,SystemResetWarning,0833.8,5.00,000.00,021.0,020.2,000.0,029.4,022.2,10.0,0000.0,0001.36,0000.39,0000.31
2023-11-22 09:55:00,SystemResetWarning,0833.7,5.00,000.00,021.0,020.2,000.0,029.4,022.2,10.0,0000.0,0001.37,0000.40,0000.31
2023-11-22 09:56:00,SystemResetWarning,0833.7,5.00,000.00,021.0,020.1,000.0,029.4,022.2,10.0,0000.0,0001.34,0000.39,0000.32
2023-11-22 09:57:00,SystemResetWarning,0833.8,5.00,000.00,021.0,020.1,000.0,029.3,022.2,10.0,0000.0,0001.35,0000.40,0000.33
2023-11-22 09:58:00,SystemResetWarning,0833.7,5.00,000.00,021.0,020.1,000.0,029.3,022.1,10.0,0000.0,0001.27,0000.40,0000.33
2023-11-22 09:59:00,SystemResetWarning,0833.7,5.00,000.00,021.0,020.1,000.0,029.3,022.1,10.0,0000.0,0001.10,0000.38,0000.33
